Weather History for CYRB - April, 2013

Change the Weather History Date:

Sunday, April 14, 2013

  Actual Average Record
Temperature  
Mean Temperature -8 °F -  
Max Temperature -4 °F 0 °F 6 °F (1999)
Min Temperature -13 °F -10 °F -28 °F (2015)
Degree Days  
Heating Degree Days 72    
Moisture  
Dew Point -14 °F    
Average Humidity 68    
Maximum Humidity 78    
Minimum Humidity 51    
Precipitation  
Precipitation 0.01 in - - ()
Sea Level Pressure  
Sea Level Pressure 30.09 in    
Wind  
Wind Speed 8 mph ()    
Max Wind Speed 15 mph    
Max Gust Speed -    
Visibility 6.2 miles    
Events Snow    
Averages and records for this station are not official NWS values.
T = Trace of Precipitation, MM = Missing Value Source: Averaged Metar Reports

Daily Weather History Graph

Daily Weather History Graph

Search for Another Location

Airport or City:

Trip Planner

Search our weather history database for the weather conditions in past years. The results will help you decide how hot, cold, wet, or windy it might be!

Date:

Astronomy

Apr. 14, 2013 Rise Set
Actual Time 4:31 AM CDT 10:13 PM CDT
Civil Twilight 1:52 AM CDT 12:47 AM CDT
Nautical Twilight Sun does not set Sun does not set
Astronomical Twilight Sun does not set Sun does not set
Moon No Moon Rise No Moon Set
Length of Visible Light 22h 54m
Length of Day
17h 42m
Waxing Crescent, 17% of the Moon is Illuminated
Apr 14
Waxing Crescent
Apr 18
First Quarter
Apr 25
Full
May 2
Last Quarter
May 9
New

Hourly Weather History & Observations

Time (CDT) Temp. Windchill Dew Point Humidity Pressure Visibility Wind Dir Wind Speed Gust Speed Precip Events Conditions
12:00 AM -0.4 °F -14.7 °F -7.6 °F 72% 30.08 in 10.0 mi SSE 8.1 mph - N/A   Mostly Cloudy
12:40 AM - - - N/A% - 3.0 mi SSW 12.7 mph - N/A   Unknown
1:00 AM -3 °F - -9 °F 65% 30.07 in 3 mi South 8.1 mph - - Snow Light Snow
1:00 AM -2.2 °F -16.8 °F -9.4 °F 71% 30.07 in 3.0 mi South 8.1 mph - N/A Snow Light Snow
2:00 AM -2.2 °F -21.5 °F -9.4 °F 71% 30.07 in 2.0 mi South 13.8 mph - N/A Snow Light Snow
2:19 AM - - - N/A% - 8.0 mi SSW 12.7 mph - N/A   Unknown
2:41 AM - - - N/A% - 10.0 mi SSE 6.9 mph - N/A   Mostly Cloudy
3:00 AM -4.0 °F -19.0 °F -11.2 °F 71% 30.08 in 10.0 mi SE 8.1 mph - N/A   Mostly Cloudy
3:37 AM - - - N/A% - 8.0 mi South 9.2 mph - N/A   Unknown
4:00 AM -4.0 °F -20.2 °F -9.4 °F 78% 30.07 in 3.0 mi SSE 9.2 mph - N/A Snow Light Snow
5:00 AM -4.0 °F -19.0 °F -9.4 °F 78% 30.07 in 3.0 mi SSE 8.1 mph - N/A Snow Light Snow
6:00 AM -4.0 °F -17.8 °F -11.2 °F 71% 30.07 in 3.0 mi SSW 6.9 mph - N/A Snow Light Snow
7:00 AM -7 °F - -14 °F 59% 30.08 in 3 mi SSW 15.0 mph - - Snow Light Snow
7:00 AM -7.6 °F -29.1 °F -13.0 °F 77% 30.08 in 3.0 mi SSW 15.0 mph - N/A Snow Light Snow
8:00 AM -7.6 °F -20.6 °F -14.8 °F 71% 30.08 in 3.0 mi SSE 5.8 mph - N/A Snow Light Snow
8:48 AM - - - N/A% - 8.0 mi South 4.6 mph - N/A   Overcast
9:00 AM -7.6 °F -18.8 °F -14.8 °F 71% 30.08 in 8.0 mi South 4.6 mph - N/A   Overcast
10:00 AM -7.6 °F -25.7 °F -14.8 °F 71% 30.08 in 6.0 mi SSW 10.4 mph - N/A Snow Light Snow
11:00 AM -7.6 °F -23.4 °F -14.8 °F 71% 30.07 in 8.0 mi South 8.1 mph - N/A Snow Light Snow
12:00 PM -7.6 °F -20.6 °F -14.8 °F 71% 30.08 in 6.0 mi SW 5.8 mph - N/A Snow Light Snow
1:00 PM -6 °F - -15 °F 51% 30.09 in 4 mi SW 8.1 mph - - Snow Light Snow
1:00 PM -5.8 °F -21.2 °F -14.8 °F 65% 30.09 in 4.0 mi SW 8.1 mph - N/A Snow Light Snow
1:14 PM - - - N/A% - 3.0 mi SW 9.2 mph - N/A Snow Light Snow Grains
2:00 PM -5.8 °F -19.9 °F -14.8 °F 65% 30.09 in 10.0 mi SSW 6.9 mph - N/A Snow Light Snow Grains
2:22 PM - - - N/A% - 3.0 mi SW 5.8 mph - N/A Snow Light Snow Grains
3:00 PM -5.8 °F -21.2 °F -13.0 °F 71% 30.09 in 3.0 mi SW 8.1 mph - N/A Snow Light Snow Grains
3:45 PM - - - N/A% - 6.0 mi SW 9.2 mph - N/A Snow Light Snow Grains
4:00 PM -5.8 °F -19.9 °F -14.8 °F 65% 30.10 in 8.0 mi SW 6.9 mph - N/A Snow Light Snow Grains
5:00 PM -5.8 °F -21.2 °F -14.8 °F 65% 30.11 in 3.0 mi West 8.1 mph - N/A Snow Light Snow Grains
5:32 PM - - - N/A% - 2.5 mi West 9.2 mph - N/A Snow Light Snow Grains
6:00 PM -7.6 °F -20.6 °F -14.8 °F 71% 30.12 in 6.0 mi West 5.8 mph - N/A Snow Light Snow Grains
7:00 PM -9 °F - -17 °F 54% 30.13 in 6 mi West 5.8 mph - - Snow Snow Grains
7:00 PM -9.4 °F -22.7 °F -16.6 °F 71% 30.13 in 6.0 mi West 5.8 mph - N/A Snow Light Snow Grains
8:00 PM -9.4 °F -22.7 °F -18.4 °F 65% 30.14 in 10.0 mi West 5.8 mph - N/A Snow Light Snow Grains
9:00 PM -11.2 °F -20.6 °F -18.4 °F 70% 30.14 in 10.0 mi WNW 3.5 mph - N/A Snow Light Snow Grains
9:40 PM - - - N/A% - 15.0 mi WNW 5.8 mph - N/A   Overcast
10:00 PM -11.2 °F -27.8 °F -20.2 °F 64% 30.15 in 15.0 mi WNW 8.1 mph - N/A   Overcast
11:00 PM -13.0 °F -27.0 °F -20.2 °F 70% 30.15 in 10.0 mi NW 5.8 mph - N/A   Overcast